Preview of NWS' New Version of Forecast
This preview is not operational and should not be used for support decisions.

Regional Weather Roundup (RWR)

Issued by National Weather Service (NWS)

                            
000
ASUS42 KTBW 210818
RWRFL 
FLORIDA REGIONAL WEATHER ROUNDUP
NATIONAL WEATHER SERVICE TAMPA BAY RUSKIN FL
400 AM EDT SAT SEP 21 2019

NOTE: "FAIR" INDICATES FEW OR NO CLOUDS BELOW 12,000 FEET WITH NO
SIGNIFICANT WEATHER AND/OR OBSTRUCTIONS TO VISIBILITY.

FLZ001>010-012>015-112-114-115-210900-
PANHANDLE FLORIDA
  
CITY           SKY/WX    TMP DP  RH WIND       PRES   REMARKS
PENSACOLA      FAIR      75  69  81 E5        30.14S                  
PENSACOLA NAS  FAIR      75  71  87 NE9       30.12F                  
MILTON NAS     FAIR      68  62  81 E6        30.16R                  
CRESTVIEW      FAIR      66  61  84 CALM      30.17F                  
DUKE FIELD     FAIR      71  63  73 E7        30.15F                  
VALPARAISO     FAIR      74  64  69 MISG      30.14F                  
MARY ESTHER    CLEAR     77  67  71 E12       30.13F                  
PANAMA CITY    FAIR      72  64  76 NE6       30.15S                  
APALACHICOLA   MOCLDY    79  68  69 E9        30.14S                  

STATION/POSITION SKY/WX   TEMP    WIND        PRES    WAVE   SWELL
                          AIR SEA DIR/SP/G            HT/PER HT/PER
                          (F)     (DEG/KT/KT) (MB)    (FT/S) (FT/S)
30.1N   87.6W              82 85   60/ 14/ 17 1019.7F   5/ 8   3/ 8
29.2N   88.2W              84     100/ 17/ 23 1018.9F   7/ 7   2/14
28.8N   86.0W                 85  110/ 21/ 25 1018.9F   6/ 7
PANAMA CITY BEAC           75 83  100/  7/ 14 1021.3F
TOWER C                    80     100/ 20/ 22 1020.5F
28.5N   84.5W              81      90/ 19/ 25 1019.7F   8/ 7

$$
FLZ011-016>038-118-127-128-134-139-239-210900-
NORTH FLORIDA
  
CITY           SKY/WX    TMP DP  RH WIND       PRES   REMARKS
MARIANNA       FAIR      71  67  87 E5        30.17F                  
TALLAHASSEE    FAIR      72  68  87 E8        30.17F                  
PERRY          FAIR      70  69  97 NE5       30.18S                  
LIVE OAK       CLOUDY    70  70 100 CALM      30.18S                  
CROSS CITY       N/A     70  68  94 NE6       30.17S                  
LAKE CITY      FAIR      70  64  83 CALM      30.18F                  
GAINESVILLE    FAIR      69  66  90 NE7       30.19S                  
WILLISTON      FAIR      68  67  95 NE5       30.16S                  
PALATKA        CLOUDY    66  63  88 CALM      30.17S                  
MAYPORT NAS    FAIR      79  65  62 E15       30.17F                  
JACKSONVILLE   FAIR      68  64  87 N3        30.17F                  
JAX NAS        FAIR      74  66  76 E5        30.18F                  
JAX CECIL      FAIR      68  66  94 CALM      30.18S FOG              
FERNANDINA BEA FAIR      76  64  66 E9        30.18F                  
ST AUGUSTINE   CLOUDY   N/A N/A N/A E15       30.17F                  
PALM COAST     FAIR      77  62  61 E10       30.15S                  

STATION/POSITION SKY/WX   TEMP    WIND        PRES    WAVE   SWELL
                          AIR SEA DIR/SP/G            HT/PER HT/PER
                          (F)     (DEG/KT/KT) (MB)    (FT/S) (FT/S)
SHELL POINT      NOT AVBL
KEATON BEACH               70      50/  6/  8 1021.7S
CEDAR KEY                  73      50/ 10/ 12 1020.9F
FERNANDINA                 83 81   70/  4/ 10 1022.9S
30.7N   81.3W                 82                N/A     5/13   2/13
MAYPORT                    80 81   80/ 12/ 15 1022.4R
31.4N   80.9W              80 81  100/ 14/ 17 1022.4F   5/ 6   3/ 8
ST AUGUSTINE               80 80   90/ 16/ 18 1021.6F

$$
FLZ040-043>046-052-053-057-058-063-144-210900-
INTERIOR CENTRAL FLORIDA
  
CITY           SKY/WX    TMP DP  RH WIND       PRES   REMARKS
OCALA          FAIR      69  68  96 CALM      30.16S                  
LEESBURG       FAIR      72  66  81 NE7       30.14F                  
SANFORD        MOCLDY    73  64  73 NE7       30.13F                  
ORLANDO EXEC   FAIR      73  64  73 NE5       30.13S                  
ORLANDO INTL   FAIR      72  63  73 NE10      30.12F                  
KISSIMMEE      FAIR      75  64  68 E10       30.12F                  
WINTER HAVEN   FAIR      73  67  81 NE9       30.11F                  
BARTOW           N/A     73  68  83 NE7       30.10S                  
SEBRING        FAIR      70  66  89 NE7       30.09S                  
OKEECHOBEE       N/A     68  64  88 NE5       30.07F                  

$$
FLZ041-047-054-059-064-141-147-210900-
EAST CENTRAL FLORIDA
  
CITY           SKY/WX    TMP DP  RH WIND       PRES   REMARKS
DAYTONA BEACH  FAIR      77  59  53 E8        30.14F                  
DELAND         FAIR      70  64  83 CALM      30.14F                  
CAPE CANAVERAL FAIR      78  67  68 E10       30.10F                  
MELBOURNE      FAIR      80  61  52 E14       30.09F                  
VERO BEACH     CLOUDY    79  66  64 E16       30.08F                  
FT PIERCE      FAIR      79  64  60 E12       30.07F                  
STUART         MOCLDY    79  68  69 E15G25    30.07F                  

STATION/POSITION SKY/WX   TEMP    WIND        PRES    WAVE   SWELL
                          AIR SEA DIR/SP/G            HT/PER HT/PER
                          (F)     (DEG/KT/KT) (MB)    (FT/S) (FT/S)
28.5N   80.2W              80 83   90/ 17/ 23 1020.1F  11/15   8/15
28.9N   78.5W              79 81   80/ 19/ 23 1020.7F  11/15   8/15
TRIDENT PIER               79 82   70/ 13/ 18 1021.1F
28.4N   80.5W                 81                N/A     5/13   2/13
27.5N   80.2W                 82                N/A     8/13   5/13

$$
FLZ050-056-061-142-242-148-248-149-249-151-251-155-255-
160-260-210900-
WEST CENTRAL FLORIDA
  
CITY           SKY/WX    TMP DP  RH WIND       PRES   REMARKS
CRYSTAL RIVER  FAIR      68  66  94 CALM      30.14S                  
INVERNESS      FAIR      68  68 100 NE5       30.14S                  
BROOKSVILLE    FAIR      70  65  84 NE5       30.12F                  
CLEARWATER AIR FAIR      72  66  83 E6        30.10S                  
ST PETE CLEARW FAIR      76  67  73 E14G20    30.10S                  
TAMPA INTL     FAIR      73  66  78 NE6       30.11S                  
TAMPA EXEC     FAIR      68  68 100 CALM      30.11F                  
PLANT CITY     FAIR      70  68  94 NE5       30.12S                  
PETER O KNIGHT MOCLDY    72  70  94 NE9       30.10F                  
ST PETERSBURG  FAIR      77  70  79 NE16      30.08F                  
SARASOTA       FAIR      75  68  78 E9        30.06S                  
VENICE         MOCLDY    73  68  83 NE10      30.07S                  

STATION/POSITION SKY/WX   TEMP    WIND        PRES    WAVE   SWELL
                          AIR SEA DIR/SP/G            HT/PER HT/PER
                          (F)     (DEG/KT/KT) (MB)    (FT/S) (FT/S)
27.3N   84.2W                 84                N/A     8/ 7
CLEARWATER BEACH           74 85   40/  7/ 10 1019.6F
MIDDLE TAMPA BAY           76      80/ 14/ 16 1019.1F
VENICE                     73 85   50/  8/ 10 1018.1S

$$
FLZ066-069-070-075>078-162-262-165-265-210900-
SOUTHWEST FLORIDA AND KEYS
  
CITY           SKY/WX    TMP DP  RH WIND       PRES   REMARKS
PUNTA GORDA    FAIR      70  68  93 NE9       30.08S                  
FT MYERS       FAIR      74  68  81 NE8       30.04F                  
SOUTHWEST INTL MOCLDY    74  69  85 NE9       30.05S                  
NAPLES         FAIR      77  72  84 NE14      30.02F                  
MARCO ISLAND   FAIR      75  71  87 NE10      30.03F                  
IMMOKALEE      MOCLDY    75  70  83 E9        30.03S                  
MARATHON       FAIR      81  74  79 E14G25    29.97S                  
KEY WEST NAS   MOCLDY    81  75  82 E15G23    29.96S                  
KEY WEST INTL  FAIR      80  76  87 E10G18    29.96F                  

STATION/POSITION SKY/WX   TEMP    WIND        PRES    WAVE   SWELL
                          AIR SEA DIR/SP/G            HT/PER HT/PER
                          (F)     (DEG/KT/KT) (MB)    (FT/S) (FT/S)
NAPLES                     77 83   60/  8/ 14 1016.8F
26.0N   85.6W              84 86   90/ 21/ 29 1016.0F  10/ 8
DRY TORTUGAS               82      80/ 25/ 28 1014.7F
SAND KEY                   83      80/ 24/ 30 1012.0F
SOMBRERO KEY               83      80/ 24/ 29 1014.9R
LONG KEY                   80                 1013.7

$$
FLZ067-068-071>074-168-172>174-210900-
SOUTHEAST FLORIDA 
  
CITY           SKY/WX    TMP DP  RH WIND       PRES   REMARKS
W PALM BEACH   FAIR      79  68  69 E18       30.05F                  
FT LAUDER-EXEC FAIR      80  69  69 E16G22    30.02F                  
FT LAUDERDALE  MOCLDY    80  70  71 E15G25    30.01F                  
POMPANO BEACH  FAIR      81  69  67 E18G24    30.02F                  
PEMBROKE PINES CLOUDY    81  70  69 NE13      30.03F                  
OPA LOCKA      MOCLDY    80  72  76 E14       30.02F                  
MIAMI          MOCLDY    82  70  66 NE14      30.01F                  
WEST KENDALL   RAIN      78  74  87 E12       30.00F                  
HOMESTEAD      NOT AVBL                                               

STATION/POSITION SKY/WX   TEMP    WIND        PRES    WAVE   SWELL
                          AIR SEA DIR/SP/G            HT/PER HT/PER
                          (F)     (DEG/KT/KT) (MB)    (FT/S) (FT/S)
VIRGINIA KEY               82 83   50/ 17/ 22 1015.8R
LAKE WORTH                 80 81   70/ 21/ 24 1018.5F
FOWEY ROCKS                82 83   70/ 26/ 27 1016.0F
SETTLEMENT POINT           79      70/ 20/ 23 1017.2F

$$